Time,TemperatureF,DewpointF,PressureIn,WindDirection,WindDirectionDegrees,WindSpeedMPH,WindSpeedGustMPH,Humidity,HourlyPrecipIn,Conditions,Clouds,dailyrainin,SoftwareType,DateUTC
2013-06-04 00:01:00,75.4,-99.9,30.02,North,-999,0.0,0.0,-999,0.08,,,-99.99,WeatherLink 5.5,2013-06-04 04:01:00,
2013-06-04 00:06:00,75.3,-99.9,30.01,North,-999,0.0,0.0,-999,0.08,,,-99.99,WeatherLink 5.5,2013-06-04 04:06:00,
2013-06-04 00:11:00,75.3,-99.9,30.01,North,-999,0.0,0.0,-999,0.08,,,-99.99,WeatherLink 5.5,2013-06-04 04:11:00,
2013-06-04 00:15:00,75.2,-99.9,30.01,North,-999,0.0,0.0,-999,0.08,,,-99.99,WeatherLink 5.5,2013-06-04 04:15:00,
2013-06-04 00:21:00,75.2,-99.9,30.01,North,-999,0.0,0.0,-999,0.08,,,-99.99,WeatherLink 5.5,2013-06-04 04:21:00,
2013-06-04 00:26:00,75.2,-99.9,30.00,North,-999,0.0,0.0,-999,0.06,,,-99.99,WeatherLink 5.5,2013-06-04 04:26:00,
2013-06-04 00:36:00,75.2,-99.9,30.00,North,-999,0.0,0.0,-999,0.01,,,-99.99,WeatherLink 5.5,2013-06-04 04:36:00,
2013-06-04 00:40:00,75.3,-99.9,30.00,North,-999,0.0,0.0,-999,0.00,,,-99.99,WeatherLink 5.5,2013-06-04 04:40:00,
2013-06-04 00:41:00,75.2,-99.9,30.00,North,-999,0.0,0.0,-999,0.00,,,-99.99,WeatherLink 5.5,2013-06-04 04:41:00,
2013-06-04 00:51:00,75.3,-99.9,30.00,North,-999,0.0,0.0,-999,0.00,,,-99.99,WeatherLink 5.5,2013-06-04 04:51:00,
2013-06-04 01:01:00,75.4,-99.9,30.00,NW,315,0.0,2.0,-999,0.00,,,-99.99,WeatherLink 5.5,2013-06-04 05:01:00,
2013-06-04 01:05:00,75.3,-99.9,29.99,North,-999,0.0,0.0,-999,0.00,,,-99.99,WeatherLink 5.5,2013-06-04 05:05:00,
2013-06-04 01:06:00,75.4,-99.9,29.99,NW,315,0.0,2.0,-999,0.00,,,-99.99,WeatherLink 5.5,2013-06-04 05:06:00,
2013-06-04 01:10:00,75.3,-99.9,29.99,North,-999,0.0,0.0,-999,0.00,,,-99.99,WeatherLink 5.5,2013-06-04 05:10:00,
2013-06-04 01:20:00,75.2,-99.9,29.99,NW,315,0.0,2.0,-999,0.00,,,-99.99,WeatherLink 5.5,2013-06-04 05:20:00,
2013-06-04 01:21:00,75.2,-99.9,29.99,NW,315,0.0,3.0,-999,0.00,,,-99.99,WeatherLink 5.5,2013-06-04 05:21:00,
2013-06-04 01:25:00,75.1,-99.9,29.98,North,-999,0.0,1.0,-999,0.00,,,-99.99,WeatherLink 5.5,2013-06-04 05:25:00,
2013-06-04 01:31:00,75.1,-99.9,29.98,North,-999,0.0,1.0,-999,0.00,,,-99.99,WeatherLink 5.5,2013-06-04 05:31:00,
2013-06-04 01:35:00,75.0,-99.9,29.98,NW,315,0.0,2.0,-999,0.00,,,-99.99,WeatherLink 5.5,2013-06-04 05:35:00,
2013-06-04 01:36:00,75.1,-99.9,29.98,NW,315,0.0,2.0,-999,0.00,,,-99.99,WeatherLink 5.5,2013-06-04 05:36:00,
2013-06-04 01:40:00,75.0,-99.9,29.98,North,-999,0.0,0.0,-999,0.00,,,-99.99,WeatherLink 5.5,2013-06-04 05:40:00,
2013-06-04 01:41:00,75.0,-99.9,29.98,NW,315,0.0,2.0,-999,0.00,,,-99.99,WeatherLink 5.5,2013-06-04 05:41:00,
2013-06-04 01:51:00,75.0,-99.9,29.98,North,-999,0.0,0.0,-999,0.00,,,-99.99,WeatherLink 5.5,2013-06-04 05:51:00,
2013-06-04 01:55:00,75.2,-99.9,29.98,North,-999,0.0,0.0,-999,0.00,,,-99.99,WeatherLink 5.5,2013-06-04 05:55:00,
2013-06-04 01:56:00,75.1,-99.9,29.98,North,-999,0.0,0.0,-999,0.00,,,-99.99,WeatherLink 5.5,2013-06-04 05:56:00,
2013-06-04 02:06:00,75.2,-99.9,29.97,North,-999,0.0,0.0,-999,0.00,,,-99.99,WeatherLink 5.5,2013-06-04 06:06:00,
2013-06-04 02:11:00,75.2,-99.9,29.98,North,-999,0.0,0.0,-999,0.00,,,-99.99,WeatherLink 5.5,2013-06-04 06:11:00,
2013-06-04 02:15:00,75.1,-99.9,29.97,North,-999,0.0,0.0,-999,0.00,,,-99.99,WeatherLink 5.5,2013-06-04 06:15:00,
2013-06-04 02:26:00,75.1,-99.9,29.97,North,-999,0.0,0.0,-999,0.00,,,-99.99,WeatherLink 5.5,2013-06-04 06:26:00,
2013-06-04 02:36:00,75.0,-99.9,29.97,North,-999,0.0,0.0,-999,0.00,,,-99.99,WeatherLink 5.5,2013-06-04 06:36:00,
2013-06-04 02:40:00,74.9,-99.9,29.97,North,-999,0.0,0.0,-999,0.00,,,-99.99,WeatherLink 5.5,2013-06-04 06:40:00,
2013-06-04 02:45:00,74.9,-99.9,29.97,North,-999,0.0,0.0,-999,0.00,,,-99.99,WeatherLink 5.5,2013-06-04 06:45:00,
2013-06-04 02:46:00,74.9,-99.9,29.97,North,-999,0.0,0.0,-999,0.00,,,-99.99,WeatherLink 5.5,2013-06-04 06:46:00,
2013-06-04 02:56:00,75.0,-99.9,29.97,North,-999,0.0,0.0,-999,0.00,,,-99.99,WeatherLink 5.5,2013-06-04 06:56:00,
2013-06-04 03:00:00,75.0,-99.9,29.97,North,-999,0.0,0.0,-999,0.00,,,-99.99,WeatherLink 5.5,2013-06-04 07:00:00,
2013-06-04 03:01:00,74.9,-99.9,29.97,North,-999,0.0,0.0,-999,0.00,,,-99.99,WeatherLink 5.5,2013-06-04 07:01:00,
2013-06-04 03:06:00,75.0,-99.9,29.97,North,-999,0.0,0.0,-999,0.00,,,-99.99,WeatherLink 5.5,2013-06-04 07:06:00,
2013-06-04 03:10:00,75.2,-99.9,29.96,North,-999,0.0,0.0,-999,0.00,,,-99.99,WeatherLink 5.5,2013-06-04 07:10:00,
2013-06-04 03:11:00,75.1,-99.9,29.96,North,-999,0.0,0.0,-999,0.00,,,-99.99,WeatherLink 5.5,2013-06-04 07:11:00,
2013-06-04 03:21:00,75.2,-99.9,29.95,North,-999,0.0,0.0,-999,0.00,,,-99.99,WeatherLink 5.5,2013-06-04 07:21:00,
2013-06-04 03:25:00,75.2,-99.9,29.95,North,-999,0.0,0.0,-999,0.00,,,-99.99,WeatherLink 5.5,2013-06-04 07:25:00,
2013-06-04 03:26:00,75.3,-99.9,29.95,North,-999,0.0,0.0,-999,0.00,,,-99.99,WeatherLink 5.5,2013-06-04 07:26:00,
2013-06-04 03:35:00,75.2,-99.9,29.94,NW,315,0.0,2.0,-999,0.00,,,-99.99,WeatherLink 5.5,2013-06-04 07:35:00,
2013-06-04 03:36:00,75.2,-99.9,29.94,North,-999,0.0,0.0,-999,0.00,,,-99.99,WeatherLink 5.5,2013-06-04 07:36:00,
2013-06-04 03:40:00,75.2,-99.9,29.95,NW,315,0.0,2.0,-999,0.00,,,-99.99,WeatherLink 5.5,2013-06-04 07:40:00,
2013-06-04 03:46:00,75.2,-99.9,29.95,NW,315,0.0,2.0,-999,0.00,,,-99.99,WeatherLink 5.5,2013-06-04 07:46:00,
2013-06-04 03:51:00,75.1,-99.9,29.95,NW,315,0.0,2.0,-999,0.01,,,-99.99,WeatherLink 5.5,2013-06-04 07:51:00,
2013-06-04 04:00:00,74.4,-99.9,29.94,North,-999,0.0,0.0,-999,0.02,,,-99.99,WeatherLink 5.5,2013-06-04 08:00:00,
2013-06-04 04:01:00,74.5,-99.9,29.94,North,-999,0.0,0.0,-999,0.01,,,-99.99,WeatherLink 5.5,2013-06-04 08:01:00,
2013-06-04 04:11:00,74.2,-99.9,29.94,North,-999,0.0,0.0,-999,0.02,,,-99.99,WeatherLink 5.5,2013-06-04 08:11:00,
2013-06-04 04:15:00,73.8,-99.9,29.94,North,-999,0.0,0.0,-999,0.02,,,-99.99,WeatherLink 5.5,2013-06-04 08:15:00,
2013-06-04 04:16:00,74.0,-99.9,29.94,North,-999,0.0,0.0,-999,0.02,,,-99.99,WeatherLink 5.5,2013-06-04 08:16:00,
2013-06-04 04:26:00,73.7,-99.9,29.94,North,-999,0.0,0.0,-999,0.02,,,-99.99,WeatherLink 5.5,2013-06-04 08:26:00,
2013-06-04 04:36:00,73.7,-99.9,29.94,North,-999,0.0,0.0,-999,0.03,,,-99.99,WeatherLink 5.5,2013-06-04 08:36:00,
2013-06-04 04:46:00,73.7,-99.9,29.94,North,-999,0.0,0.0,-999,0.03,,,-99.99,WeatherLink 5.5,2013-06-04 08:46:00,
2013-06-04 04:50:00,73.6,-99.9,29.94,North,-999,0.0,0.0,-999,0.02,,,-99.99,WeatherLink 5.5,2013-06-04 08:50:00,
2013-06-04 04:51:00,73.6,-99.9,29.94,North,-999,0.0,0.0,-999,0.02,,,-99.99,WeatherLink 5.5,2013-06-04 08:51:00,
2013-06-04 05:01:00,73.6,-99.9,29.94,North,-999,0.0,0.0,-999,0.02,,,-99.99,WeatherLink 5.5,2013-06-04 09:01:00,
2013-06-04 05:07:00,73.6,-99.9,29.94,North,-999,0.0,0.0,-999,0.01,,,-99.99,WeatherLink 5.5,2013-06-04 09:07:00,
2013-06-04 05:16:00,73.7,-99.9,29.94,North,-999,0.0,0.0,-999,0.01,,,-99.99,WeatherLink 5.5,2013-06-04 09:16:00,
2013-06-04 05:20:00,73.8,-99.9,29.95,North,-999,0.0,0.0,-999,0.01,,,-99.99,WeatherLink 5.5,2013-06-04 09:20:00,
2013-06-04 05:31:00,73.8,-99.9,29.95,North,-999,0.0,0.0,-999,0.01,,,-99.99,WeatherLink 5.5,2013-06-04 09:31:00,
2013-06-04 05:35:00,73.9,-99.9,29.94,North,-999,0.0,0.0,-999,0.00,,,-99.99,WeatherLink 5.5,2013-06-04 09:35:00,
2013-06-04 05:40:00,73.9,-99.9,29.95,North,-999,0.0,0.0,-999,0.00,,,-99.99,WeatherLink 5.5,2013-06-04 09:40:00,
2013-06-04 05:41:00,73.9,-99.9,29.94,North,-999,0.0,0.0,-999,0.00,,,-99.99,WeatherLink 5.5,2013-06-04 09:41:00,
2013-06-04 05:51:00,74.0,-99.9,29.95,North,-999,0.0,0.0,-999,0.00,,,-99.99,WeatherLink 5.5,2013-06-04 09:51:00,
2013-06-04 05:55:00,74.0,-99.9,29.94,North,-999,0.0,0.0,-999,0.00,,,-99.99,WeatherLink 5.5,2013-06-04 09:55:00,
2013-06-04 05:56:00,74.0,-99.9,29.95,North,-999,0.0,0.0,-999,0.00,,,-99.99,WeatherLink 5.5,2013-06-04 09:56:00,
2013-06-04 06:06:00,73.9,-99.9,29.94,North,-999,0.0,0.0,-999,0.00,,,-99.99,WeatherLink 5.5,2013-06-04 10:06:00,
2013-06-04 06:10:00,73.9,-99.9,29.94,North,-999,0.0,0.0,-999,0.00,,,-99.99,WeatherLink 5.5,2013-06-04 10:10:00,
2013-06-04 06:16:00,73.9,-99.9,29.94,North,-999,0.0,0.0,-999,0.00,,,-99.99,WeatherLink 5.5,2013-06-04 10:16:00,
2013-06-04 06:25:00,73.9,-99.9,29.94,North,-999,0.0,0.0,-999,0.00,,,-99.99,WeatherLink 5.5,2013-06-04 10:25:00,
2013-06-04 06:26:00,73.9,-99.9,29.94,North,-999,0.0,0.0,-999,0.00,,,-99.99,WeatherLink 5.5,2013-06-04 10:26:00,
2013-06-04 06:31:00,73.9,-99.9,29.94,North,-999,0.0,0.0,-999,0.00,,,-99.99,WeatherLink 5.5,2013-06-04 10:31:00,
2013-06-04 06:40:00,73.9,-99.9,29.95,North,-999,0.0,0.0,-999,0.00,,,-99.99,WeatherLink 5.5,2013-06-04 10:40:00,
2013-06-04 06:41:00,73.9,-99.9,29.95,North,-999,0.0,0.0,-999,0.00,,,-99.99,WeatherLink 5.5,2013-06-04 10:41:00,
2013-06-04 06:50:00,74.0,-99.9,29.95,North,-999,0.0,0.0,-999,0.00,,,-99.99,WeatherLink 5.5,2013-06-04 10:50:00,
2013-06-04 06:51:00,73.9,-99.9,29.95,North,-999,0.0,0.0,-999,0.00,,,-99.99,WeatherLink 5.5,2013-06-04 10:51:00,
2013-06-04 06:55:00,74.0,-99.9,29.95,North,-999,0.0,0.0,-999,0.00,,,-99.99,WeatherLink 5.5,2013-06-04 10:55:00,
2013-06-04 07:05:00,74.2,-99.9,29.96,North,-999,0.0,0.0,-999,0.00,,,-99.99,WeatherLink 5.5,2013-06-04 11:05:00,
2013-06-04 07:06:00,74.1,-99.9,29.95,North,-999,0.0,0.0,-999,0.00,,,-99.99,WeatherLink 5.5,2013-06-04 11:06:00,
2013-06-04 07:10:00,74.3,-99.9,29.96,North,-999,0.0,0.0,-999,0.00,,,-99.99,WeatherLink 5.5,2013-06-04 11:10:00,
2013-06-04 07:21:00,74.4,-99.9,29.96,North,-999,0.0,0.0,-999,0.00,,,-99.99,WeatherLink 5.5,2013-06-04 11:21:00,
2013-06-04 07:26:00,74.5,-99.9,29.96,North,-999,0.0,0.0,-999,0.00,,,-99.99,WeatherLink 5.5,2013-06-04 11:26:00,
2013-06-04 07:30:00,74.8,-99.9,29.96,North,-999,0.0,0.0,-999,0.00,,,-99.99,WeatherLink 5.5,2013-06-04 11:30:00,
2013-06-04 07:31:00,74.7,-99.9,29.96,North,-999,0.0,0.0,-999,0.00,,,-99.99,WeatherLink 5.5,2013-06-04 11:31:00,
2013-06-04 07:35:00,74.9,-99.9,29.96,North,-999,0.0,0.0,-999,0.00,,,-99.99,WeatherLink 5.5,2013-06-04 11:35:00,
2013-06-04 07:45:00,75.2,-99.9,29.97,North,-999,0.0,0.0,-999,0.00,,,-99.99,WeatherLink 5.5,2013-06-04 11:45:00,
2013-06-04 07:46:00,75.1,-99.9,29.97,North,-999,0.0,0.0,-999,0.00,,,-99.99,WeatherLink 5.5,2013-06-04 11:46:00,
2013-06-04 07:50:00,75.3,-99.9,29.97,North,-999,0.0,0.0,-999,0.00,,,-99.99,WeatherLink 5.5,2013-06-04 11:50:00,
2013-06-04 07:51:00,75.2,-99.9,29.97,North,-999,0.0,0.0,-999,0.00,,,-99.99,WeatherLink 5.5,2013-06-04 11:51:00,
2013-06-04 08:01:00,75.3,-99.9,29.97,North,-999,0.0,0.0,-999,0.00,,,-99.99,WeatherLink 5.5,2013-06-04 12:01:00,
2013-06-04 08:06:00,75.5,-99.9,29.97,North,-999,0.0,0.0,-999,0.00,,,-99.99,WeatherLink 5.5,2013-06-04 12:06:00,
2013-06-04 08:15:00,75.8,-99.9,29.98,North,-999,0.0,0.0,-999,0.00,,,-99.99,WeatherLink 5.5,2013-06-04 12:15:00,
2013-06-04 08:16:00,75.8,-99.9,29.97,North,-999,0.0,0.0,-999,0.00,,,-99.99,WeatherLink 5.5,2013-06-04 12:16:00,
2013-06-04 08:20:00,75.8,-99.9,29.98,North,-999,0.0,0.0,-999,0.00,,,-99.99,WeatherLink 5.5,2013-06-04 12:20:00,
2013-06-04 08:25:00,75.9,-99.9,29.98,North,-999,0.0,0.0,-999,0.00,,,-99.99,WeatherLink 5.5,2013-06-04 12:25:00,
2013-06-04 08:36:00,76.1,-99.9,29.98,North,-999,0.0,0.0,-999,0.00,,,-99.99,WeatherLink 5.5,2013-06-04 12:36:00,
2013-06-04 08:40:00,76.5,-99.9,29.99,North,-999,0.0,0.0,-999,0.00,,,-99.99,WeatherLink 5.5,2013-06-04 12:40:00,
2013-06-04 08:51:00,76.5,-99.9,29.99,North,-999,0.0,0.0,-999,0.00,,,-99.99,WeatherLink 5.5,2013-06-04 12:51:00,
2013-06-04 08:55:00,76.6,-99.9,29.99,North,-999,0.0,0.0,-999,0.00,,,-99.99,WeatherLink 5.5,2013-06-04 12:55:00,
2013-06-04 09:01:00,76.6,-99.9,29.99,North,-999,0.0,0.0,-999,0.00,,,-99.99,WeatherLink 5.5,2013-06-04 13:01:00,
2013-06-04 09:11:00,76.8,-99.9,29.99,North,-999,0.0,0.0,-999,0.00,,,-99.99,WeatherLink 5.5,2013-06-04 13:11:00,
2013-06-04 09:16:00,77.0,-99.9,30.00,ENE,67,0.0,1.0,-999,0.00,,,-99.99,WeatherLink 5.5,2013-06-04 13:16:00,
2013-06-04 09:25:00,77.4,-99.9,30.01,North,-999,0.0,0.0,-999,0.00,,,-99.99,WeatherLink 5.5,2013-06-04 13:25:00,
2013-06-04 09:26:00,77.2,-99.9,30.01,North,-999,0.0,0.0,-999,0.00,,,-99.99,WeatherLink 5.5,2013-06-04 13:26:00,
2013-06-04 09:36:00,77.8,-99.9,30.01,North,-999,0.0,0.0,-999,0.00,,,-99.99,WeatherLink 5.5,2013-06-04 13:36:00,
2013-06-04 09:40:00,77.9,-99.9,30.02,North,-999,0.0,0.0,-999,0.00,,,-99.99,WeatherLink 5.5,2013-06-04 13:40:00,
2013-06-04 09:46:00,77.9,-99.9,30.02,North,-999,0.0,0.0,-999,0.00,,,-99.99,WeatherLink 5.5,2013-06-04 13:46:00,
2013-06-04 09:56:00,77.9,-99.9,30.02,North,-999,0.0,0.0,-999,0.00,,,-99.99,WeatherLink 5.5,2013-06-04 13:56:00,
2013-06-04 10:06:00,78.1,-99.9,30.03,North,-999,0.0,0.0,-999,0.00,,,-99.99,WeatherLink 5.5,2013-06-04 14:06:00,
2013-06-04 10:15:00,78.3,-99.9,30.03,ENE,67,0.0,2.0,-999,0.00,,,-99.99,WeatherLink 5.5,2013-06-04 14:15:00,
2013-06-04 10:16:00,78.3,-99.9,30.03,North,-999,0.0,0.0,-999,0.00,,,-99.99,WeatherLink 5.5,2013-06-04 14:16:00,
2013-06-04 10:20:00,78.3,-99.9,30.04,North,-999,0.0,0.0,-999,0.00,,,-99.99,WeatherLink 5.5,2013-06-04 14:20:00,
2013-06-04 10:31:00,78.5,-99.9,30.04,North,-999,0.0,0.0,-999,0.00,,,-99.99,WeatherLink 5.5,2013-06-04 14:31:00,
2013-06-04 10:36:00,78.7,-99.9,30.04,North,-999,0.0,0.0,-999,0.00,,,-99.99,WeatherLink 5.5,2013-06-04 14:36:00,
2013-06-04 10:41:00,78.8,-99.9,30.04,North,-999,0.0,0.0,-999,0.00,,,-99.99,WeatherLink 5.5,2013-06-04 14:41:00,
2013-06-04 10:51:00,79.2,-99.9,30.04,North,-999,0.0,0.0,-999,0.00,,,-99.99,WeatherLink 5.5,2013-06-04 14:51:00,
2013-06-04 11:01:00,79.4,-99.9,30.04,North,-999,0.0,1.0,-999,0.00,,,-99.99,WeatherLink 5.5,2013-06-04 15:01:00,
2013-06-04 11:05:00,79.3,-99.9,30.04,North,-999,0.0,0.0,-999,0.00,,,-99.99,WeatherLink 5.5,2013-06-04 15:05:00,
2013-06-04 11:06:00,79.3,-99.9,30.04,North,-999,0.0,0.0,-999,0.00,,,-99.99,WeatherLink 5.5,2013-06-04 15:06:00,
2013-06-04 11:15:00,79.5,-99.9,30.04,North,-999,0.0,0.0,-999,0.00,,,-99.99,WeatherLink 5.5,2013-06-04 15:15:00,
2013-06-04 11:16:00,79.3,-99.9,30.04,North,-999,0.0,0.0,-999,0.00,,,-99.99,WeatherLink 5.5,2013-06-04 15:16:00,
2013-06-04 11:25:00,80.0,-99.9,30.04,North,-999,0.0,0.0,-999,0.00,,,-99.99,WeatherLink 5.5,2013-06-04 15:25:00,
2013-06-04 11:26:00,79.8,-99.9,30.04,North,-999,0.0,0.0,-999,0.00,,,-99.99,WeatherLink 5.5,2013-06-04 15:26:00,
2013-06-04 11:36:00,80.4,-99.9,30.04,North,-999,0.0,0.0,-999,0.00,,,-99.99,WeatherLink 5.5,2013-06-04 15:36:00,
2013-06-04 11:46:00,80.7,-99.9,30.03,North,-999,0.0,0.0,-999,0.00,,,-99.99,WeatherLink 5.5,2013-06-04 15:46:00,
2013-06-04 11:50:00,81.3,-99.9,30.03,ENE,67,0.0,2.0,-999,0.00,,,-99.99,WeatherLink 5.5,2013-06-04 15:50:00,
2013-06-04 11:55:00,81.9,-99.9,30.04,North,-999,0.0,0.0,-999,0.00,,,-99.99,WeatherLink 5.5,2013-06-04 15:55:00,
2013-06-04 12:00:00,82.4,-99.9,30.03,ENE,67,0.0,1.0,-999,0.00,,,-99.99,WeatherLink 5.5,2013-06-04 16:00:00,
2013-06-04 12:11:00,82.8,-99.9,30.03,ENE,67,0.0,1.0,-999,0.00,,,-99.99,WeatherLink 5.5,2013-06-04 16:11:00,
2013-06-04 12:16:00,83.0,-99.9,30.03,ENE,67,0.0,1.0,-999,0.00,,,-99.99,WeatherLink 5.5,2013-06-04 16:16:00,
2013-06-04 12:21:00,83.0,-99.9,30.03,ENE,67,0.0,1.0,-999,0.00,,,-99.99,WeatherLink 5.5,2013-06-04 16:21:00,
2013-06-04 12:30:00,82.6,-99.9,30.02,ENE,67,0.0,4.0,-999,0.00,,,-99.99,WeatherLink 5.5,2013-06-04 16:30:00,
2013-06-04 12:31:00,82.7,-99.9,30.02,ENE,67,0.0,4.0,-999,0.00,,,-99.99,WeatherLink 5.5,2013-06-04 16:31:00,
2013-06-04 12:41:00,82.6,-99.9,30.02,ENE,67,0.0,7.0,-999,0.00,,,-99.99,WeatherLink 5.5,2013-06-04 16:41:00,
2013-06-04 12:46:00,82.7,-99.9,30.02,East,90,0.0,4.0,-999,0.00,,,-99.99,WeatherLink 5.5,2013-06-04 16:46:00,
2013-06-04 12:50:00,83.0,-99.9,30.02,East,90,0.0,4.0,-999,0.00,,,-99.99,WeatherLink 5.5,2013-06-04 16:50:00,
2013-06-04 12:55:00,83.0,-99.9,30.01,East,90,1.0,5.0,-999,0.00,,,-99.99,WeatherLink 5.5,2013-06-04 16:55:00,
2013-06-04 13:00:00,83.0,-99.9,30.02,East,90,0.0,3.0,-999,0.00,,,-99.99,WeatherLink 5.5,2013-06-04 17:00:00,
2013-06-04 13:11:00,83.1,-99.9,30.01,East,90,0.0,5.0,-999,0.00,,,-99.99,WeatherLink 5.5,2013-06-04 17:11:00,
2013-06-04 13:15:00,83.3,-99.9,30.01,East,90,2.0,6.0,-999,0.00,,,-99.99,WeatherLink 5.5,2013-06-04 17:15:00,
2013-06-04 13:26:00,83.2,-99.9,30.01,East,90,1.0,6.0,-999,0.00,,,-99.99,WeatherLink 5.5,2013-06-04 17:26:00,
2013-06-04 13:35:00,84.1,-99.9,30.01,ESE,112,0.0,1.0,-999,0.00,,,-99.99,WeatherLink 5.5,2013-06-04 17:35:00,
2013-06-04 13:36:00,84.0,-99.9,30.01,ESE,112,2.0,7.0,-999,0.00,,,-99.99,WeatherLink 5.5,2013-06-04 17:36:00,
2013-06-04 13:41:00,84.1,-99.9,30.01,ESE,112,0.0,1.0,-999,0.00,,,-99.99,WeatherLink 5.5,2013-06-04 17:41:00,
2013-06-04 13:45:00,83.9,-99.9,30.00,ESE,112,1.0,5.0,-999,0.00,,,-99.99,WeatherLink 5.5,2013-06-04 17:45:00,
2013-06-04 13:46:00,83.9,-99.9,30.00,ESE,112,1.0,5.0,-999,0.00,,,-99.99,WeatherLink 5.5,2013-06-04 17:46:00,
2013-06-04 13:56:00,83.8,-99.9,30.00,East,90,2.0,6.0,-999,0.00,,,-99.99,WeatherLink 5.5,2013-06-04 17:56:00,
2013-06-04 14:06:00,83.6,-99.9,30.00,East,90,1.0,7.0,-999,0.00,,,-99.99,WeatherLink 5.5,2013-06-04 18:06:00,
2013-06-04 14:16:00,83.9,-99.9,30.00,East,90,1.0,5.0,-999,0.00,,,-99.99,WeatherLink 5.5,2013-06-04 18:16:00,
2013-06-04 14:21:00,83.9,-99.9,30.00,SE,135,3.0,9.0,-999,0.00,,,-99.99,WeatherLink 5.5,2013-06-04 18:21:00,
2013-06-04 14:31:00,83.7,-99.9,30.00,ESE,112,3.0,8.0,-999,0.00,,,-99.99,WeatherLink 5.5,2013-06-04 18:31:00,
2013-06-04 14:36:00,83.7,-99.9,30.00,East,90,2.0,9.0,-999,0.00,,,-99.99,WeatherLink 5.5,2013-06-04 18:36:00,
2013-06-04 14:41:00,83.5,-99.9,29.99,East,90,1.0,9.0,-999,0.00,,,-99.99,WeatherLink 5.5,2013-06-04 18:41:00,
2013-06-04 14:46:00,83.5,-99.9,29.99,East,90,1.0,9.0,-999,0.00,,,-99.99,WeatherLink 5.5,2013-06-04 18:46:00,
2013-06-04 14:56:00,83.9,-99.9,29.99,East,90,1.0,7.0,-999,0.00,,,-99.99,WeatherLink 5.5,2013-06-04 18:56:00,
2013-06-04 15:01:00,84.2,-99.9,29.99,East,90,0.0,5.0,-999,0.00,,,-99.99,WeatherLink 5.5,2013-06-04 19:01:00,
2013-06-04 15:05:00,84.6,-99.9,29.98,East,90,1.0,7.0,-999,0.00,,,-99.99,WeatherLink 5.5,2013-06-04 19:05:00,
2013-06-04 15:06:00,84.6,-99.9,29.99,East,90,2.0,7.0,-999,0.00,,,-99.99,WeatherLink 5.5,2013-06-04 19:06:00,
2013-06-04 15:16:00,84.7,-99.9,29.98,ENE,67,2.0,9.0,-999,0.00,,,-99.99,WeatherLink 5.5,2013-06-04 19:16:00,
2013-06-04 15:26:00,84.2,-99.9,29.98,East,90,1.0,8.0,-999,0.00,,,-99.99,WeatherLink 5.5,2013-06-04 19:26:00,
2013-06-04 15:30:00,84.3,-99.9,29.97,East,90,2.0,7.0,-999,0.00,,,-99.99,WeatherLink 5.5,2013-06-04 19:30:00,
2013-06-04 15:36:00,84.3,-99.9,29.97,East,90,2.0,7.0,-999,0.00,,,-99.99,WeatherLink 5.5,2013-06-04 19:36:00,
2013-06-04 15:46:00,84.2,-99.9,30.00,East,90,3.0,8.0,-999,0.00,,,-99.99,WeatherLink 5.5,2013-06-04 19:46:00,
2013-06-04 15:50:00,84.4,78.3,29.97,East,90,1.0,7.0,82,0.00,,,-99.99,WeatherLink 5.5,2013-06-04 19:50:00,
2013-06-04 15:51:00,84.1,80.8,29.97,East,90,0.0,4.0,90,0.00,,,-99.99,WeatherLink 5.5,2013-06-04 19:51:00,
2013-06-04 16:01:00,84.7,78.6,29.98,East,90,2.0,9.0,82,0.00,,,-99.99,WeatherLink 5.5,2013-06-04 20:01:00,
2013-06-04 16:11:00,84.3,79.7,29.98,East,90,2.0,6.0,86,0.00,,,-99.99,WeatherLink 5.5,2013-06-04 20:11:00,
2013-06-04 16:15:00,84.5,84.5,29.99,ESE,112,1.0,5.0,100,0.00,,,-99.99,WeatherLink 5.5,2013-06-04 20:15:00,
2013-06-04 16:16:00,84.4,80.1,29.98,ESE,112,2.0,9.0,87,0.00,,,-99.99,WeatherLink 5.5,2013-06-04 20:16:00,
2013-06-04 16:25:00,84.4,84.4,29.98,ESE,112,2.0,8.0,100,0.00,,,-99.99,WeatherLink 5.5,2013-06-04 20:25:00,
2013-06-04 16:26:00,84.4,84.4,29.98,East,90,1.0,4.0,100,0.00,,,-99.99,WeatherLink 5.5,2013-06-04 20:26:00,
2013-06-04 16:30:00,84.3,84.3,29.98,ESE,112,1.0,4.0,100,0.00,,,-99.99,WeatherLink 5.5,2013-06-04 20:30:00,
2013-06-04 16:36:00,84.3,84.3,29.98,ESE,112,1.0,4.0,100,0.00,,,-99.99,WeatherLink 5.5,2013-06-04 20:36:00,
2013-06-04 16:45:00,83.7,78.0,29.98,ESE,112,1.0,7.0,83,0.00,,,-99.99,WeatherLink 5.5,2013-06-04 20:45:00,
2013-06-04 16:46:00,83.9,80.3,29.98,ESE,112,1.0,7.0,89,0.00,,,-99.99,WeatherLink 5.5,2013-06-04 20:46:00,
2013-06-04 16:56:00,83.6,77.5,30.00,ESE,112,1.0,5.0,82,0.00,,,-99.99,WeatherLink 5.5,2013-06-04 20:56:00,
2013-06-04 17:00:00,83.3,-99.9,29.98,East,90,1.0,4.0,-999,0.00,,,-99.99,WeatherLink 5.5,2013-06-04 21:00:00,
2013-06-04 17:01:00,83.4,77.3,29.95,ESE,112,1.0,6.0,82,0.00,,,-99.99,WeatherLink 5.5,2013-06-04 21:01:00,
2013-06-04 17:05:00,83.3,-99.9,29.99,East,90,0.0,6.0,-999,0.00,,,-99.99,WeatherLink 5.5,2013-06-04 21:05:00,
2013-06-04 17:10:00,83.2,-99.9,29.97,ESE,112,2.0,7.0,-999,0.00,,,-99.99,WeatherLink 5.5,2013-06-04 21:10:00,
2013-06-04 17:11:00,83.3,-99.9,29.99,East,90,0.0,6.0,-999,0.00,,,-99.99,WeatherLink 5.5,2013-06-04 21:11:00,
2013-06-04 17:15:00,83.1,-99.9,29.96,ESE,112,2.0,8.0,-999,0.00,,,-99.99,WeatherLink 5.5,2013-06-04 21:15:00,
2013-06-04 17:26:00,82.8,76.4,29.97,East,90,0.0,5.0,81,0.00,,,-99.99,WeatherLink 5.5,2013-06-04 21:26:00,
2013-06-04 17:30:00,82.6,-99.9,29.97,East,90,1.0,6.0,-999,0.00,,,-99.99,WeatherLink 5.5,2013-06-04 21:30:00,
2013-06-04 17:31:00,82.7,-99.9,29.97,East,90,2.0,8.0,-999,0.00,,,-99.99,WeatherLink 5.5,2013-06-04 21:31:00,
2013-06-04 17:35:00,82.5,-99.9,29.95,East,90,3.0,7.0,-999,0.00,,,-99.99,WeatherLink 5.5,2013-06-04 21:35:00,
2013-06-04 17:36:00,82.6,-99.9,29.97,East,90,1.0,6.0,-999,0.00,,,-99.99,WeatherLink 5.5,2013-06-04 21:36:00,
2013-06-04 17:40:00,82.3,-99.9,29.97,East,90,2.0,7.0,-999,0.00,,,-99.99,WeatherLink 5.5,2013-06-04 21:40:00,
2013-06-04 17:50:00,82.2,-99.9,29.97,ESE,112,2.0,7.0,-999,0.00,,,-99.99,WeatherLink 5.5,2013-06-04 21:50:00,
2013-06-04 17:51:00,82.3,75.9,29.97,East,90,1.0,6.0,81,0.00,,,-99.99,WeatherLink 5.5,2013-06-04 21:51:00,
2013-06-04 18:01:00,82.1,-99.9,29.98,ESE,112,1.0,5.0,-999,0.00,,,-99.99,WeatherLink 5.5,2013-06-04 22:01:00,
2013-06-04 18:06:00,81.9,-99.9,29.97,ESE,112,2.0,7.0,-999,0.00,,,-99.99,WeatherLink 5.5,2013-06-04 22:06:00,
2013-06-04 18:10:00,81.6,-99.9,29.97,East,90,3.0,8.0,-999,0.00,,,-99.99,WeatherLink 5.5,2013-06-04 22:10:00,
2013-06-04 18:21:00,81.5,-99.9,29.97,East,90,1.0,5.0,-999,0.00,,,-99.99,WeatherLink 5.5,2013-06-04 22:21:00,
2013-06-04 18:31:00,81.4,75.0,29.97,East,90,2.0,5.0,81,0.00,,,-99.99,WeatherLink 5.5,2013-06-04 22:31:00,
2013-06-04 18:36:00,81.2,-99.9,29.98,East,90,1.0,5.0,-999,0.00,,,-99.99,WeatherLink 5.5,2013-06-04 22:36:00,
2013-06-04 18:46:00,81.2,-99.9,29.97,East,90,1.0,5.0,-999,0.00,,,-99.99,WeatherLink 5.5,2013-06-04 22:46:00,
2013-06-04 18:51:00,81.1,-99.9,29.98,East,90,1.0,5.0,-999,0.00,,,-99.99,WeatherLink 5.5,2013-06-04 22:51:00,
2013-06-04 19:01:00,81.0,-99.9,29.98,East,90,0.0,4.0,-999,0.00,,,-99.99,WeatherLink 5.5,2013-06-04 23:01:00,
2013-06-04 19:11:00,80.8,-99.9,29.98,East,90,0.0,3.0,-999,0.00,,,-99.99,WeatherLink 5.5,2013-06-04 23:11:00,
2013-06-04 19:21:00,80.8,-99.9,29.99,East,90,0.0,3.0,-999,0.00,,,-99.99,WeatherLink 5.5,2013-06-04 23:21:00,
2013-06-04 19:25:00,80.6,-99.9,30.00,East,90,0.0,1.0,-999,0.00,,,-99.99,WeatherLink 5.5,2013-06-04 23:25:00,
2013-06-04 19:26:00,80.7,74.3,29.99,East,90,1.0,4.0,81,0.00,,,-99.99,WeatherLink 5.5,2013-06-04 23:26:00,
2013-06-04 19:30:00,80.5,74.1,30.00,North,-999,0.0,1.0,81,0.00,,,-99.99,WeatherLink 5.5,2013-06-04 23:30:00,
2013-06-04 19:36:00,80.5,74.1,30.00,North,-999,0.0,1.0,81,0.00,,,-99.99,WeatherLink 5.5,2013-06-04 23:36:00,
2013-06-04 19:40:00,80.3,-99.9,30.00,North,-999,0.0,1.0,-999,0.00,,,-99.99,WeatherLink 5.5,2013-06-04 23:40:00,
2013-06-04 19:45:00,80.2,-99.9,30.00,East,90,0.0,1.0,-999,0.00,,,-99.99,WeatherLink 5.5,2013-06-04 23:45:00,
2013-06-04 19:56:00,80.2,-99.9,30.01,North,-999,0.0,1.0,-999,0.00,,,-99.99,WeatherLink 5.5,2013-06-04 23:56:00,
2013-06-04 20:01:00,80.0,-99.9,30.01,North,-999,0.0,0.0,-999,0.00,,,-99.99,WeatherLink 5.5,2013-06-05 00:01:00,
2013-06-04 20:05:00,79.8,-99.9,30.01,East,90,0.0,1.0,-999,0.00,,,-99.99,WeatherLink 5.5,2013-06-05 00:05:00,
2013-06-04 20:10:00,79.7,-99.9,30.01,East,90,0.0,3.0,-999,0.00,,,-99.99,WeatherLink 5.5,2013-06-05 00:10:00,
2013-06-04 20:11:00,79.8,-99.9,30.01,East,90,0.0,1.0,-999,0.00,,,-99.99,WeatherLink 5.5,2013-06-05 00:11:00,
2013-06-04 20:16:00,79.7,-99.9,30.01,East,90,0.0,3.0,-999,0.00,,,-99.99,WeatherLink 5.5,2013-06-05 00:16:00,
2013-06-04 20:20:00,79.4,-99.9,30.01,East,90,0.0,3.0,-999,0.00,,,-99.99,WeatherLink 5.5,2013-06-05 00:20:00,
2013-06-04 20:21:00,79.6,-99.9,30.01,East,90,0.0,2.0,-999,0.00,,,-99.99,WeatherLink 5.5,2013-06-05 00:21:00,
2013-06-04 20:31:00,79.3,-99.9,30.01,East,90,0.0,2.0,-999,0.01,,,-99.99,WeatherLink 5.5,2013-06-05 00:31:00,
2013-06-04 20:41:00,79.2,-99.9,30.01,East,90,0.0,3.0,-999,0.01,,,-99.99,WeatherLink 5.5,2013-06-05 00:41:00,
2013-06-04 20:46:00,79.2,72.9,30.01,East,90,0.0,1.0,81,0.01,,,-99.99,WeatherLink 5.5,2013-06-05 00:46:00,
2013-06-04 20:50:00,79.1,-99.9,30.01,East,90,0.0,3.0,-999,0.01,,,-99.99,WeatherLink 5.5,2013-06-05 00:50:00,
2013-06-04 20:51:00,79.1,-99.9,30.01,East,90,0.0,3.0,-999,0.01,,,-99.99,WeatherLink 5.5,2013-06-05 00:51:00,
2013-06-04 21:01:00,79.0,-99.9,30.01,North,-999,0.0,1.0,-999,0.01,,,-99.99,WeatherLink 5.5,2013-06-05 01:01:00,
2013-06-04 21:11:00,79.0,-99.9,30.01,East,90,0.0,5.0,-999,0.01,,,-99.99,WeatherLink 5.5,2013-06-05 01:11:00,
2013-06-04 21:21:00,78.9,-99.9,30.01,East,90,0.0,1.0,-999,0.01,,,-99.99,WeatherLink 5.5,2013-06-05 01:21:00,
2013-06-04 21:30:00,78.9,-99.9,30.00,East,90,0.0,1.0,-999,0.00,,,-99.99,WeatherLink 5.5,2013-06-05 01:30:00,
2013-06-04 21:31:00,78.9,-99.9,30.01,East,90,0.0,4.0,-999,0.00,,,-99.99,WeatherLink 5.5,2013-06-05 01:31:00,
2013-06-04 21:35:00,79.0,-99.9,30.00,North,-999,0.0,1.0,-999,0.00,,,-99.99,WeatherLink 5.5,2013-06-05 01:35:00,
2013-06-04 21:46:00,79.0,-99.9,30.00,East,90,0.0,1.0,-999,0.00,,,-99.99,WeatherLink 5.5,2013-06-05 01:46:00,
2013-06-04 21:50:00,79.0,-99.9,30.00,North,-999,0.0,1.0,-999,0.00,,,-99.99,WeatherLink 5.5,2013-06-05 01:50:00,
2013-06-04 21:51:00,79.0,-99.9,30.00,East,90,0.0,1.0,-999,0.00,,,-99.99,WeatherLink 5.5,2013-06-05 01:51:00,
2013-06-04 22:00:00,78.9,-99.9,30.00,North,-999,0.0,1.0,-999,0.00,,,-99.99,WeatherLink 5.5,2013-06-05 02:00:00,
2013-06-04 22:01:00,79.0,-99.9,30.00,East,90,0.0,2.0,-999,0.00,,,-99.99,WeatherLink 5.5,2013-06-05 02:01:00,
2013-06-04 22:11:00,78.9,-99.9,30.00,East,90,0.0,4.0,-999,0.00,,,-99.99,WeatherLink 5.5,2013-06-05 02:11:00,
2013-06-04 22:21:00,78.9,-99.9,30.00,North,-999,0.0,0.0,-999,0.00,,,-99.99,WeatherLink 5.5,2013-06-05 02:21:00,
2013-06-04 22:26:00,78.9,-99.9,30.01,East,90,0.0,2.0,-999,0.00,,,-99.99,WeatherLink 5.5,2013-06-05 02:26:00,
2013-06-04 22:36:00,79.0,-99.9,30.01,East,90,0.0,2.0,-999,0.00,,,-99.99,WeatherLink 5.5,2013-06-05 02:36:00,
2013-06-04 22:40:00,79.0,-99.9,30.01,East,90,0.0,1.0,-999,0.00,,,-99.99,WeatherLink 5.5,2013-06-05 02:40:00,
2013-06-04 22:41:00,79.0,-99.9,30.01,East,90,0.0,1.0,-999,0.00,,,-99.99,WeatherLink 5.5,2013-06-05 02:41:00,
2013-06-04 22:45:00,79.1,-99.9,30.01,North,-999,0.0,1.0,-999,0.00,,,-99.99,WeatherLink 5.5,2013-06-05 02:45:00,
2013-06-04 22:56:00,79.1,-99.9,30.00,East,90,0.0,5.0,-999,0.00,,,-99.99,WeatherLink 5.5,2013-06-05 02:56:00,
2013-06-04 23:01:00,79.2,-99.9,30.00,East,90,0.0,4.0,-999,0.00,,,-99.99,WeatherLink 5.5,2013-06-05 03:01:00,
2013-06-04 23:06:00,79.1,-99.9,30.00,North,-999,0.0,0.0,-999,0.00,,,-99.99,WeatherLink 5.5,2013-06-05 03:06:00,
2013-06-04 23:10:00,78.9,-99.9,30.00,East,90,0.0,1.0,-999,0.00,,,-99.99,WeatherLink 5.5,2013-06-05 03:10:00,
2013-06-04 23:15:00,79.0,-99.9,30.00,East,90,0.0,1.0,-999,0.00,,,-99.99,WeatherLink 5.5,2013-06-05 03:15:00,
2013-06-04 23:26:00,79.0,-99.9,30.00,East,90,0.0,1.0,-999,0.00,,,-99.99,WeatherLink 5.5,2013-06-05 03:26:00,
2013-06-04 23:31:00,79.0,-99.9,30.00,East,90,0.0,3.0,-999,0.00,,,-99.99,WeatherLink 5.5,2013-06-05 03:31:00,
2013-06-04 23:36:00,79.1,-99.9,30.00,East,90,0.0,3.0,-999,0.00,,,-99.99,WeatherLink 5.5,2013-06-05 03:36:00,
2013-06-04 23:41:00,79.2,-99.9,30.00,East,90,0.0,4.0,-999,0.00,,,-99.99,WeatherLink 5.5,2013-06-05 03:41:00,
2013-06-04 23:47:00,79.2,-99.9,30.00,East,90,0.0,4.0,-999,0.00,,,-99.99,WeatherLink 5.5,2013-06-05 03:47:00,
2013-06-04 23:56:00,79.4,-99.9,30.00,East,90,0.0,4.0,-999,0.00,,,-99.99,WeatherLink 5.5,2013-06-05 03:56:00,